Погода в Грине

США     44°11′30″N   70°08′30″W
темп.,
°C
ветер,
м/с
пор.,
м/с
влажн.,
%
обл.,
%
осадки,
мм/ч
давл.,
гПа
погр.,
м
4 июля, пн
пн423:00+15зсз236590 0.0 101650
02:00+13зсз22740 0.0 101738
05:00+12з22800 0.0 101839
08:00+18зсз24580 0.0 1019344
11:00+23сз473511 0.0 10182529
14:00+25зсз672977 0.0 10173088
17:00+23зсз483853 0.0 10171885
20:00+18ссв1166100 0.0 101811
5 июля, вт
вт523:00+15зсз1166100 0.0 101911
02:00+13з1176100 0.0 101910
05:00+12зсз118397 0.0 101810
08:00+19юз2360100 0.0 1018269
11:00+17зюз2476100 0.0 1018125
14:00+15ююв1698100 1.9 1015325
17:00+16ю2693100 0.8 1013530
20:00+14в2499100 1.7 1011160
6 июля, ср
ср623:00+14ю1399100 0.7 1009132
02:00+14зсз129981 0.8 100778
05:00+13сз1198100 0.0 100718
08:00+18с38930 0.0 1010786
11:00+23с57440 0.0 10111693
14:00+26с46315 0.0 10122536
17:00+26ссз352931 0.0 10122781
20:00+18ссз22662 0.0 101514
7 июля, чт
чт723:00+14ссз11673 0.0 101612
02:00+12сз117365 0.0 101811
05:00+11сз117610 0.0 101910
08:00+18ссв115676 0.0 1019253
11:00+25юв11380 0.0 10191440
14:00+27ююз13295 0.0 10172673
17:00+23ю694593 0.0 1017784
20:00+18ю39838 0.2 1018333
8 июля, пт
пт823:00+15ю138986 0.1 101847
02:00+14ююз12935 0.1 101826
05:00+13ююз1390100 0.0 101763
08:00+17ююз238284 0.2 1018265
11:00+25ююз2352100 0.0 10161105
14:00+29юз243775 0.0 10152453
17:00+20ююв3983100 0.4 1014385
20:00+18ю1397100 1.6 101587